, NM

(GMT )
Holloman AFB

Weather History for KHMN - November, 2011

Change the Weather History Date:

Saturday, November 5, 2011

  Actual Average Record
Temperature  
Mean Temperature 55 °F -  
Max Temperature 64 °F 64 °F 78 °F (2007)
Min Temperature 43 °F 36 °F 30 °F (2004)
Degree Days  
Heating Degree Days 10    
Growing Degree Days 5 (Base 50)    
Moisture  
Dew Point 28 °F    
Average Humidity 34    
Maximum Humidity 61    
Minimum Humidity 24    
Precipitation  
Precipitation 0.39 in - - ()
Sea Level Pressure  
Sea Level Pressure 29.68 in    
Wind  
Wind Speed 16 mph (SW)    
Max Wind Speed 29 mph    
Max Gust Speed 39 mph    
Visibility 9 miles    
Events Rain    
Averages and records for this station are not official NWS values.
T = Trace of Precipitation, MM = Missing Value Source: NWS Daily Summary

Daily Weather History Graph

Daily Weather History Graph

Search for Another Location

Airport or City:

Trip Planner

Search our weather history database for the weather conditions in past years. The results will help you decide how hot, cold, wet, or windy it might be!

Date:

Astronomy

Nov. 05, 2011 Rise Set
Actual Time 7:25 AM MDT 6:10 PM MDT
Civil Twilight 6:59 AM MDT 6:35 PM MDT
Nautical Twilight 6:30 AM MDT 7:05 PM MDT
Astronomical Twilight 6:01 AM MDT 7:33 PM MDT
Moon 3:17 PM MDT (11/5) 2:51 AM MDT (11/5)
Length of Visible Light 11h 35m
Length of Day
10h 44m
Waxing Gibbous, 78% of the Moon is Illuminated
Nov 5
Waxing Gibbous
Nov 10
Full
Nov 18
Last Quarter
Nov 24
New
Dec 2
First Quarter

Hourly Weather History & Observations

Time (MDT) Temp. Windchill Dew Point Humidity Pressure Visibility Wind Dir Wind Speed Gust Speed Precip Events Conditions
12:55 AM 60.4 °F - 27.5 °F 29% 29.61 in 10.0 mi South 16.1 mph - N/A   Clear
1:55 AM 59.7 °F - 26.6 °F 28% 29.58 in 10.0 mi South 15.0 mph - N/A   Clear
2:55 AM 58.5 °F - 27.3 °F 30% 29.56 in 10.0 mi SSE 17.3 mph - N/A   Clear
3:55 AM 60.3 °F - 27.7 °F 29% 29.54 in 10.0 mi South 13.8 mph - N/A   Clear
4:55 AM 58.5 °F - 25.3 °F 28% 29.55 in 10.0 mi SSE 15.0 mph - N/A   Clear
5:55 AM 58.5 °F - 25.0 °F 28% 29.55 in 10.0 mi SSE 12.7 mph - N/A   Scattered Clouds
6:55 AM 59.0 °F - 23.4 °F 25% 29.57 in 10.0 mi South 10.4 mph - N/A   Overcast
7:55 AM 58.6 °F - 21.2 °F 24% 29.58 in 10.0 mi SSE 17.3 mph - N/A   Mostly Cloudy
8:55 AM 62.2 °F - 28.0 °F 27% 29.57 in 10.0 mi SSE 25.3 mph 36.8 mph N/A   Partly Cloudy
9:55 AM 63.5 °F - 33.3 °F 32% 29.59 in 10.0 mi South 19.6 mph 29.9 mph 0.13 in   Partly Cloudy
10:16 AM 64.4 °F - 41.0 °F 42% 29.59 in 10.0 mi West 25.3 mph 39.1 mph N/A Rain Light Rain
10:55 AM 55.2 °F - 41.9 °F 61% 29.68 in 9.0 mi West 18.4 mph 27.6 mph 0.26 in Rain Light Rain
10:58 AM 55.4 °F - 41.0 °F 58% 29.69 in 10.0 mi West 21.9 mph 27.6 mph N/A   Scattered Clouds
11:55 AM 56.8 °F - 36.3 °F 46% 29.72 in 10.0 mi WSW 19.6 mph - 0.00 in   Clear
12:55 PM 57.2 °F - 32.7 °F 40% 29.74 in 10.0 mi West 12.7 mph - N/A   Partly Cloudy
1:55 PM 57.2 °F - 31.1 °F 37% 29.72 in 10.0 mi WSW 27.6 mph 36.8 mph N/A   Clear
2:55 PM 57.2 °F - 29.3 °F 35% 29.73 in 5.0 mi WSW 19.6 mph 32.2 mph N/A   Haze
3:00 PM 57.2 °F - 28.4 °F 33% 29.72 in 4.0 mi SW 17.3 mph 32.2 mph N/A   Haze
3:55 PM 57.9 °F - 27.9 °F 32% 29.69 in 7.0 mi West 21.9 mph - N/A   Clear
4:55 PM 55.9 °F - 26.1 °F 32% 29.69 in 8.0 mi West 28.8 mph 35.7 mph N/A   Clear
5:55 PM 55.9 °F - 24.4 °F 30% 29.72 in 8.0 mi SW 12.7 mph - N/A   Clear
6:38 PM 55.4 °F - 23.0 °F 29% 29.75 in 8.0 mi WNW 13.8 mph 21.9 mph N/A   Clear
6:55 PM 54.0 °F - 22.8 °F 30% 29.75 in 8.0 mi WNW 9.2 mph - N/A   Clear
7:09 PM 51.8 °F - 23.0 °F 33% 29.77 in 8.0 mi SW 9.2 mph - N/A   Clear
7:55 PM 53.2 °F - 21.9 °F 29% 29.79 in 10.0 mi North 3.5 mph 18.4 mph N/A   Clear
8:55 PM 51.4 °F - 21.9 °F 32% 29.79 in 10.0 mi West 12.7 mph - N/A   Clear
9:55 PM 48.7 °F - 22.1 °F 35% 29.82 in 10.0 mi WSW 6.9 mph - N/A   Clear
10:55 PM 46.4 °F 45.2 °F 21.9 °F 38% 29.85 in 10.0 mi West 3.5 mph - N/A   Clear
11:55 PM 43.3 °F 38.6 °F 23.2 °F 45% 29.86 in 10.0 mi ENE 8.1 mph - N/A   Clear